Location: Sobotiste
(48.7170°N, 17.4000°E)
Time: 21:40:25
(UTC+02:00)

SEEDS - Pass Details

Date: 17 March 2026
Orbit: 470 x 477 km, 97.8° (Epoch: 21 April)

Event Time Altitude Azimuth Distance (km) Brightness Sun altitude
Rises 04:21:15 0° 28° (NNE) 2,557 ? -16.9°
Reaches altitude 10° 04:23:50 10° 48° (NE) 1,668 ? -16.5°
Maximum altitude 04:26:22 18° 93° (E) 1,239 ? -16.1°
Drops below altitude 10° 04:28:53 10° 138° (SE) 1,652 ? -15.7°
Sets 04:31:25 0° 158° (SSE) 2,522 ? -15.3°
